STARLINK-1096, 44942

Orbit data source: Space-Track

STARLINK-1096, 44942 is a payload satellite owned by SpaceX/Seattle (US) in LEO that was launched on Tue, 07 Jan 2020 UTC via an FALCON 9 launch vehicle from the Air Force Eastern Test Range (AFETR). Payloads include a variety of satellites, spacecraft, and rockets equipped with specific instruments for various scientific and technological missions. These include communications satellites like Starlink; space stations such as the ISS; scientific satellites like the Hubble; Earth observation satellites from companies like Planet Labs, Umbra, and HawkEye 360; GPS; miniature CubeSats for education and research; and military/defense satellites.

Loading next visibility...
STARLINK-1096 details
Identifier
44942, 2020-001AE
Orbit
LEO
Last TLE update9 hours ago
Origin
Flag of USSpaceX/Seattle (US)
ManufacturerSpaceX/Seattle
MissionPartially operational Commercial Communications
Bus & MotorSTARLINK, Unknown motor
Mass260 kg wet, ~248 kg dry
Launch date (UTC)
2020-01-07 (5 years ago)
Launch vehicle
FALCON 9
Launch site
Air Force Eastern Test Range (AFETR)
Object type
Payload
Rocket body
Debris
Shape & HBRBox + 1 Pan, 8.86 m
Radar Cross Section13.562 m², Large (>1 m²)

Expand to show TLE details & history

TLE from 9 hours ago
0 STARLINK-1096
1 44942U 20001AE  24361.09046306  .00039313  00000-0  77279-3 0  9994
2 44942  53.0074  21.1167 0003626 102.8402 257.3009 15.46917373275620
Epoch: 2024-12-26T02:10Z
Definitive object data (Epoch: 2024-12-26T02:10:16.008Z)
Latitude-0.00004°
Longitude-106.52488°
Altitude427.183 km
Speed7.656 km/s
True Right ascension01h 24m 28s
True Declination0° 00' 00"
Sunlit
Object was in daylight at TLE epoch
Visualization TLE readout
Latitude-22.7327°
Longitude-126.64758°
Altitude433.793 km
Speed7.651 km/s
Apparent Right ascension23h 28m 17s
Apparent Declination-31° 16' 32"
Sunlit
Object is in daylight
Visualization observer readout
Local Sidereal Time10:42:21
Azimuth309.307° NW
Elevation-77.3°
Doppler factor1
Orbital elements
Apogee altitude428.5 km
Perigee altitude423.566 km
Semi-major axis6,804.17 km
Eccentricity0.0003626
Inclination53.0074°
RAAN21.1167°
Arg. of periapsis102.8402°
True anomaly257.26037°
Mean anomaly257.3009°
Eccentric anomaly257.28063°
Mean motion3.86706 °/min
BSTAR0.00077279
Orbital period93.09 mins
Loading maneuver chart data...

STARLINK-1096 Visibility forecast

Observer location: undefined°, undefined

Span
Click to sort rows by Start time (UTC) header in descending order
Start Az.
Max El. time (UTC)
Max El. Az.
Max El.
End time (UTC)
End Az.
5 mins2024-12-26 12:00:01.719Z288° WNW2024-12-26 12:03:01.719Z214.691° SW26.595°2024-12-26 12:05:01.719Z169.749° S
5 mins2024-12-27 04:45:01.719Z262.901° W2024-12-27 04:47:01.719Z336.461° NNW34.473°2024-12-27 04:50:01.719Z39.227° NE
4 mins2024-12-27 11:16:01.719Z286.522° WNW2024-12-27 11:17:01.719Z249.498° W37.969°2024-12-27 11:20:01.719Z147.99° SSE
|